Year,Month,Day,Hour,Minute,Value (Times are PST for temperature in C)
2014,09,21,00,00,14.60
2014,09,21,00,01,14.60
2014,09,21,00,02,14.60
2014,09,21,00,03,14.60
2014,09,21,00,04,14.70
2014,09,21,00,05,14.70
2014,09,21,00,06,14.70
2014,09,21,00,07,14.80
2014,09,21,00,08,14.80
2014,09,21,00,09,14.80
2014,09,21,00,10,14.80
2014,09,21,00,11,14.80
2014,09,21,00,12,14.90
2014,09,21,00,13,14.90
2014,09,21,00,14,14.90
2014,09,21,00,15,14.90
2014,09,21,00,16,14.90
2014,09,21,00,17,15.00
2014,09,21,00,18,15.00
2014,09,21,00,19,15.00
2014,09,21,00,20,15.00
2014,09,21,00,21,14.90
2014,09,21,00,22,14.90
2014,09,21,00,23,14.90
2014,09,21,00,24,14.90
2014,09,21,00,25,14.90
2014,09,21,00,26,14.90
2014,09,21,00,27,14.90
2014,09,21,00,28,14.90
2014,09,21,00,29,14.90
2014,09,21,00,30,14.90
2014,09,21,00,31,14.90
2014,09,21,00,32,14.80
2014,09,21,00,33,14.80
2014,09,21,00,34,14.80
2014,09,21,00,35,14.80
2014,09,21,00,36,14.80
2014,09,21,00,37,14.80
2014,09,21,00,38,14.80
2014,09,21,00,39,14.80
2014,09,21,00,40,14.80
2014,09,21,00,41,14.90
2014,09,21,00,42,14.90
2014,09,21,00,43,15.00
2014,09,21,00,44,15.00
2014,09,21,00,45,15.00
2014,09,21,00,46,15.00
2014,09,21,00,47,15.00
2014,09,21,00,48,15.00
2014,09,21,00,49,15.10
2014,09,21,00,50,15.10
2014,09,21,00,51,15.10
2014,09,21,00,52,15.10
2014,09,21,00,53,15.10
2014,09,21,00,54,15.10
2014,09,21,00,55,15.10
2014,09,21,00,56,15.10
2014,09,21,00,57,15.10
2014,09,21,00,58,15.20
2014,09,21,00,59,15.20
2014,09,21,01,00,15.30
2014,09,21,01,01,15.30
2014,09,21,01,02,15.30
2014,09,21,01,03,15.30
2014,09,21,01,04,15.30
2014,09,21,01,05,15.30
2014,09,21,01,06,15.40
2014,09,21,01,07,15.40
2014,09,21,01,08,15.40
2014,09,21,01,09,15.40
2014,09,21,01,10,15.40
2014,09,21,01,11,15.40
2014,09,21,01,12,15.40
2014,09,21,01,13,15.40
2014,09,21,01,14,15.40
2014,09,21,01,15,15.40
2014,09,21,01,16,15.40
2014,09,21,01,17,15.40
2014,09,21,01,18,15.30
2014,09,21,01,19,15.30
2014,09,21,01,20,15.30
2014,09,21,01,21,15.30
2014,09,21,01,22,15.30
2014,09,21,01,23,15.30
2014,09,21,01,24,15.30
2014,09,21,01,25,15.30
2014,09,21,01,26,15.30
2014,09,21,01,27,15.30
2014,09,21,01,28,15.30
2014,09,21,01,29,15.30
2014,09,21,01,30,15.40
2014,09,21,01,31,15.40
2014,09,21,01,32,15.40
2014,09,21,01,33,15.40
2014,09,21,01,34,15.40
2014,09,21,01,35,15.40
2014,09,21,01,36,15.30
2014,09,21,01,37,15.30
2014,09,21,01,38,15.30
2014,09,21,01,39,15.30
2014,09,21,01,40,15.30
2014,09,21,01,41,15.30
2014,09,21,01,42,15.30
2014,09,21,01,43,15.30
2014,09,21,01,44,15.30
2014,09,21,01,45,15.20
2014,09,21,01,46,15.20
2014,09,21,01,47,15.10
2014,09,21,01,48,15.10
2014,09,21,01,49,15.00
2014,09,21,01,50,14.90
2014,09,21,01,51,14.90
2014,09,21,01,52,14.80
2014,09,21,01,53,14.80
2014,09,21,01,54,14.70
2014,09,21,01,55,14.60
2014,09,21,01,56,14.60
2014,09,21,01,57,14.50
2014,09,21,01,58,14.40
2014,09,21,01,59,14.30
2014,09,21,02,00,14.30
2014,09,21,02,01,14.30
2014,09,21,02,02,14.20
2014,09,21,02,03,14.20
2014,09,21,02,04,14.10
2014,09,21,02,05,14.10
2014,09,21,02,06,14.10
2014,09,21,02,07,14.10
2014,09,21,02,08,14.00
2014,09,21,02,09,14.00
2014,09,21,02,10,14.00
2014,09,21,02,11,13.90
2014,09,21,02,12,13.90
2014,09,21,02,13,14.00
2014,09,21,02,14,14.00
2014,09,21,02,15,14.00
2014,09,21,02,16,14.00
2014,09,21,02,17,13.90
2014,09,21,02,18,13.90
2014,09,21,02,19,13.90
2014,09,21,02,20,13.90
2014,09,21,02,21,13.90
2014,09,21,02,22,13.90
2014,09,21,02,23,13.90
2014,09,21,02,24,13.90
2014,09,21,02,25,13.90
2014,09,21,02,26,13.90
2014,09,21,02,27,13.80
2014,09,21,02,28,13.80
2014,09,21,02,29,13.80
2014,09,21,02,30,13.80
2014,09,21,02,31,13.80
2014,09,21,02,32,13.80
2014,09,21,02,33,13.80
2014,09,21,02,34,13.80
2014,09,21,02,35,13.80
2014,09,21,02,36,13.70
2014,09,21,02,37,13.70
2014,09,21,02,38,13.70
2014,09,21,02,39,13.70
2014,09,21,02,40,13.70
2014,09,21,02,41,13.70
2014,09,21,02,42,13.70
2014,09,21,02,43,13.70
2014,09,21,02,44,13.70
2014,09,21,02,45,13.70
2014,09,21,02,46,13.70
2014,09,21,02,47,13.70
2014,09,21,02,48,13.60
2014,09,21,02,49,13.60
2014,09,21,02,50,13.60
2014,09,21,02,51,13.60
2014,09,21,02,52,13.60
2014,09,21,02,53,13.60
2014,09,21,02,54,13.60
2014,09,21,02,55,13.60
2014,09,21,02,56,13.60
2014,09,21,02,57,13.60
2014,09,21,02,58,13.60
2014,09,21,02,59,13.60
2014,09,21,03,00,13.60
2014,09,21,03,01,13.60
2014,09,21,03,02,13.60
2014,09,21,03,03,13.60
2014,09,21,03,04,13.60
2014,09,21,03,05,13.50
2014,09,21,03,06,13.50
2014,09,21,03,07,13.50
2014,09,21,03,08,13.50
2014,09,21,03,09,13.50
2014,09,21,03,10,13.50
2014,09,21,03,11,13.50
2014,09,21,03,12,13.40
2014,09,21,03,13,13.40
2014,09,21,03,14,13.40
2014,09,21,03,15,13.40
2014,09,21,03,16,13.40
2014,09,21,03,17,13.40
2014,09,21,03,18,13.40
2014,09,21,03,19,13.40
2014,09,21,03,20,13.40
2014,09,21,03,21,13.40
2014,09,21,03,22,13.40
2014,09,21,03,23,13.40
2014,09,21,03,24,13.40
2014,09,21,03,25,13.40
2014,09,21,03,26,13.30
2014,09,21,03,27,13.30
2014,09,21,03,28,13.20
2014,09,21,03,29,13.10
2014,09,21,03,30,13.10
2014,09,21,03,31,13.10
2014,09,21,03,32,13.00
2014,09,21,03,33,13.00
2014,09,21,03,34,12.90
2014,09,21,03,35,12.90
2014,09,21,03,36,12.90
2014,09,21,03,37,13.00
2014,09,21,03,38,13.00
2014,09,21,03,39,13.00
2014,09,21,03,40,13.10
2014,09,21,03,41,13.20
2014,09,21,03,42,13.20
2014,09,21,03,43,13.20
2014,09,21,03,44,13.20
2014,09,21,03,45,13.20
2014,09,21,03,46,13.20
2014,09,21,03,47,13.10
2014,09,21,03,48,13.10
2014,09,21,03,49,13.00
2014,09,21,03,50,13.00
2014,09,21,03,51,12.90
2014,09,21,03,52,12.90
2014,09,21,03,53,12.80
2014,09,21,03,54,12.80
2014,09,21,03,55,12.70
2014,09,21,03,56,12.70
2014,09,21,03,57,12.70
2014,09,21,03,58,12.60
2014,09,21,03,59,12.60
2014,09,21,04,00,12.60
2014,09,21,04,01,12.60
2014,09,21,04,02,12.60
2014,09,21,04,03,12.60
2014,09,21,04,04,12.60
2014,09,21,04,05,12.50
2014,09,21,04,06,12.50
2014,09,21,04,07,12.50
2014,09,21,04,08,12.40
2014,09,21,04,09,12.40
2014,09,21,04,10,12.40
2014,09,21,04,11,12.40
2014,09,21,04,12,12.40
2014,09,21,04,13,12.30
2014,09,21,04,14,12.30
2014,09,21,04,15,12.30
2014,09,21,04,16,12.30
2014,09,21,04,17,12.40
2014,09,21,04,18,12.40
2014,09,21,04,19,12.40
2014,09,21,04,20,12.40
2014,09,21,04,21,12.40
2014,09,21,04,22,12.40
2014,09,21,04,23,12.50
2014,09,21,04,24,12.50
2014,09,21,04,25,12.60
2014,09,21,04,26,12.60
2014,09,21,04,27,12.70
2014,09,21,04,28,12.70
2014,09,21,04,29,12.70
2014,09,21,04,30,12.70
2014,09,21,04,31,12.70
2014,09,21,04,32,12.70
2014,09,21,04,33,12.70
2014,09,21,04,34,12.70
2014,09,21,04,35,12.70
2014,09,21,04,36,12.70
2014,09,21,04,37,12.70
2014,09,21,04,38,12.70
2014,09,21,04,39,12.70
2014,09,21,04,40,12.80
2014,09,21,04,41,12.80
2014,09,21,04,42,12.80
2014,09,21,04,43,12.90
2014,09,21,04,44,12.90
2014,09,21,04,45,12.90
2014,09,21,04,46,12.90
2014,09,21,04,47,12.90
2014,09,21,04,48,12.90
2014,09,21,04,49,13.00
2014,09,21,04,50,13.00
2014,09,21,04,51,13.00
2014,09,21,04,52,13.00
2014,09,21,04,53,13.00
2014,09,21,04,54,13.00
2014,09,21,04,55,13.00
2014,09,21,04,56,12.90
2014,09,21,04,57,12.90
2014,09,21,04,58,12.80
2014,09,21,04,59,12.80
2014,09,21,05,00,12.80
2014,09,21,05,01,12.80
2014,09,21,05,02,12.70
2014,09,21,05,03,12.70
2014,09,21,05,04,12.70
2014,09,21,05,05,12.60
2014,09,21,05,06,12.60
2014,09,21,05,07,12.60
2014,09,21,05,08,12.60
2014,09,21,05,09,12.50
2014,09,21,05,10,12.50
2014,09,21,05,11,12.50
2014,09,21,05,12,12.40
2014,09,21,05,13,12.40
2014,09,21,05,14,12.30
2014,09,21,05,15,12.30
2014,09,21,05,16,12.20
2014,09,21,05,17,12.20
2014,09,21,05,18,12.20
2014,09,21,05,19,12.20
2014,09,21,05,20,12.20
2014,09,21,05,21,12.10
2014,09,21,05,22,12.10
2014,09,21,05,23,12.10
2014,09,21,05,24,12.20
2014,09,21,05,25,12.20
2014,09,21,05,26,12.20
2014,09,21,05,27,12.20
2014,09,21,05,28,12.20
2014,09,21,05,29,12.20
2014,09,21,05,30,12.20
2014,09,21,05,31,12.20
2014,09,21,05,32,12.20
2014,09,21,05,33,12.20
2014,09,21,05,34,12.10
2014,09,21,05,35,12.10
2014,09,21,05,36,12.10
2014,09,21,05,37,12.10
2014,09,21,05,38,12.10
2014,09,21,05,39,12.10
2014,09,21,05,40,12.10
2014,09,21,05,41,12.00
2014,09,21,05,42,12.00
2014,09,21,05,43,11.90
2014,09,21,05,44,11.80
2014,09,21,05,45,11.80
2014,09,21,05,46,11.70
2014,09,21,05,47,11.70
2014,09,21,05,48,11.70
2014,09,21,05,49,11.70
2014,09,21,05,50,11.70
2014,09,21,05,51,11.70
2014,09,21,05,52,11.60
2014,09,21,05,53,11.60
2014,09,21,05,54,11.60
2014,09,21,05,55,11.60
2014,09,21,05,56,11.60
2014,09,21,05,57,11.50
2014,09,21,05,58,11.50
2014,09,21,05,59,11.50
2014,09,21,06,00,11.40
2014,09,21,06,01,11.40
2014,09,21,06,02,11.40
2014,09,21,06,03,11.30
2014,09,21,06,04,11.30
2014,09,21,06,05,11.30
2014,09,21,06,06,11.30
2014,09,21,06,07,11.30
2014,09,21,06,08,11.30
2014,09,21,06,09,11.30
2014,09,21,06,10,11.30
2014,09,21,06,11,11.30
2014,09,21,06,12,11.30
2014,09,21,06,13,11.30
2014,09,21,06,14,11.30
2014,09,21,06,15,11.30
2014,09,21,06,16,11.30
2014,09,21,06,17,11.30
2014,09,21,06,18,11.30
2014,09,21,06,19,11.30
2014,09,21,06,20,11.30
2014,09,21,06,21,11.30
2014,09,21,06,22,11.30
2014,09,21,06,23,11.30
2014,09,21,06,24,11.40
2014,09,21,06,25,11.40
2014,09,21,06,26,11.40
2014,09,21,06,27,11.40
2014,09,21,06,28,11.40
2014,09,21,06,29,11.40
2014,09,21,06,30,11.50
2014,09,21,06,31,11.50
2014,09,21,06,32,11.50
2014,09,21,06,33,11.50
2014,09,21,06,34,11.50
2014,09,21,06,35,11.50
2014,09,21,06,36,11.40
2014,09,21,06,37,11.50
2014,09,21,06,38,11.50
2014,09,21,06,39,11.50
2014,09,21,06,40,11.50
2014,09,21,06,41,11.50
2014,09,21,06,42,11.50
2014,09,21,06,43,11.50
2014,09,21,06,44,11.60
2014,09,21,06,45,11.60
2014,09,21,06,46,11.60
2014,09,21,06,47,11.60
2014,09,21,06,48,11.60
2014,09,21,06,49,11.60
2014,09,21,06,50,11.60
2014,09,21,06,51,11.70
2014,09,21,06,52,11.70
2014,09,21,06,53,11.70
2014,09,21,06,54,11.70
2014,09,21,06,55,11.70
2014,09,21,06,56,11.70
2014,09,21,06,57,11.70
2014,09,21,06,58,11.60
2014,09,21,06,59,11.60
2014,09,21,07,00,11.60
2014,09,21,07,01,11.60
2014,09,21,07,02,11.60
2014,09,21,07,03,11.60
2014,09,21,07,04,11.50
2014,09,21,07,05,11.50
2014,09,21,07,06,11.50
2014,09,21,07,07,11.50
2014,09,21,07,08,11.40
2014,09,21,07,09,11.30
2014,09,21,07,10,11.30
2014,09,21,07,11,11.30
2014,09,21,07,12,11.20
2014,09,21,07,13,11.20
2014,09,21,07,14,11.10
2014,09,21,07,15,11.10
2014,09,21,07,16,11.00
2014,09,21,07,17,11.00
2014,09,21,07,18,10.90
2014,09,21,07,19,10.90
2014,09,21,07,20,10.90
2014,09,21,07,21,10.80
2014,09,21,07,22,10.80
2014,09,21,07,23,10.80
2014,09,21,07,24,10.80
2014,09,21,07,25,10.80
2014,09,21,07,26,10.80
2014,09,21,07,27,10.80
2014,09,21,07,28,10.80
2014,09,21,07,29,10.80
2014,09,21,07,30,10.90
2014,09,21,07,31,10.90
2014,09,21,07,32,10.90
2014,09,21,07,33,11.00
2014,09,21,07,34,11.00
2014,09,21,07,35,11.00
2014,09,21,07,36,11.10
2014,09,21,07,37,11.10
2014,09,21,07,38,11.10
2014,09,21,07,39,11.20
2014,09,21,07,40,11.20
2014,09,21,07,41,11.20
2014,09,21,07,42,11.20
2014,09,21,07,43,11.20
2014,09,21,07,44,11.30
2014,09,21,07,45,11.30
2014,09,21,07,46,11.40
2014,09,21,07,47,11.50
2014,09,21,07,48,11.60
2014,09,21,07,49,11.60
2014,09,21,07,50,11.70
2014,09,21,07,51,11.80
2014,09,21,07,52,11.80
2014,09,21,07,53,11.90
2014,09,21,07,54,12.00
2014,09,21,07,55,12.10
2014,09,21,07,56,12.10
2014,09,21,07,57,12.10
2014,09,21,07,58,12.20
2014,09,21,07,59,12.20
2014,09,21,08,00,12.20
2014,09,21,08,01,12.20
2014,09,21,08,02,12.30
2014,09,21,08,03,12.30
2014,09,21,08,04,12.30
2014,09,21,08,05,12.40
2014,09,21,08,06,12.40
2014,09,21,08,07,12.40
2014,09,21,08,08,12.40
2014,09,21,08,09,12.50
2014,09,21,08,10,12.50
2014,09,21,08,11,12.60
2014,09,21,08,12,12.60
2014,09,21,08,13,12.70
2014,09,21,08,14,12.80
2014,09,21,08,15,12.80
2014,09,21,08,16,12.90
2014,09,21,08,17,13.00
2014,09,21,08,18,13.00
2014,09,21,08,19,13.10
2014,09,21,08,20,13.20
2014,09,21,08,21,13.30
2014,09,21,08,22,13.40
2014,09,21,08,23,13.40
2014,09,21,08,24,13.50
2014,09,21,08,25,13.60
2014,09,21,08,26,13.60
2014,09,21,08,27,13.70
2014,09,21,08,28,13.80
2014,09,21,08,29,13.90
2014,09,21,08,30,14.00
2014,09,21,08,31,14.10
2014,09,21,08,32,14.30
2014,09,21,08,33,14.50
2014,09,21,08,34,14.60
2014,09,21,08,35,14.90
2014,09,21,08,36,15.10
2014,09,21,08,37,15.20
2014,09,21,08,38,15.40
2014,09,21,08,39,15.50
2014,09,21,08,40,15.60
2014,09,21,08,41,15.60
2014,09,21,08,42,15.70
2014,09,21,08,43,15.80
2014,09,21,08,44,15.80
2014,09,21,08,45,15.80
2014,09,21,08,46,15.90
2014,09,21,08,47,15.90
2014,09,21,08,48,16.00
2014,09,21,08,49,16.10
2014,09,21,08,50,16.20
2014,09,21,08,51,16.30
2014,09,21,08,52,16.30
2014,09,21,08,53,16.30
2014,09,21,08,54,16.30
2014,09,21,08,55,16.40
2014,09,21,08,56,16.40
2014,09,21,08,57,16.40
2014,09,21,08,58,16.40
2014,09,21,08,59,16.50
2014,09,21,09,00,16.60
2014,09,21,09,01,16.60
2014,09,21,09,02,16.70
2014,09,21,09,03,16.70
2014,09,21,09,04,16.80
2014,09,21,09,05,16.80
2014,09,21,09,06,16.80
2014,09,21,09,07,16.80
2014,09,21,09,08,16.80
2014,09,21,09,09,16.80
2014,09,21,09,10,16.90
2014,09,21,09,11,16.90
2014,09,21,09,12,16.90
2014,09,21,09,13,17.00
2014,09,21,09,14,17.00
2014,09,21,09,15,17.10
2014,09,21,09,16,17.10
2014,09,21,09,17,17.10
2014,09,21,09,18,17.10
2014,09,21,09,19,17.10
2014,09,21,09,20,17.20
2014,09,21,09,21,17.20
2014,09,21,09,22,17.20
2014,09,21,09,23,17.20
2014,09,21,09,24,17.20
2014,09,21,09,25,17.20
2014,09,21,09,26,17.20
2014,09,21,09,27,17.20
2014,09,21,09,28,17.20
2014,09,21,09,29,17.20
2014,09,21,09,30,17.30
2014,09,21,09,31,17.30
2014,09,21,09,32,17.30
2014,09,21,09,33,17.40
2014,09,21,09,34,17.40
2014,09,21,09,35,17.40
2014,09,21,09,36,17.40
2014,09,21,09,37,17.40
2014,09,21,09,38,17.40
2014,09,21,09,39,17.40
2014,09,21,09,40,17.40
2014,09,21,09,41,17.40
2014,09,21,09,42,17.50
2014,09,21,09,43,17.60
2014,09,21,09,44,17.60
2014,09,21,09,45,17.70
2014,09,21,09,46,17.80
2014,09,21,09,47,17.90
2014,09,21,09,48,18.00
2014,09,21,09,49,18.10
2014,09,21,09,50,18.10
2014,09,21,09,51,18.20
2014,09,21,09,52,18.20
2014,09,21,09,53,18.30
2014,09,21,09,54,18.40
2014,09,21,09,55,18.50
2014,09,21,09,56,18.70
2014,09,21,09,57,18.80
2014,09,21,09,58,18.90
2014,09,21,09,59,19.10
2014,09,21,10,00,19.20
2014,09,21,10,01,19.30
2014,09,21,10,02,19.40
2014,09,21,10,03,19.50
2014,09,21,10,04,19.60
2014,09,21,10,05,19.80
2014,09,21,10,06,19.90
2014,09,21,10,07,19.90
2014,09,21,10,08,19.90
2014,09,21,10,09,19.70
2014,09,21,10,10,19.50
2014,09,21,10,11,19.20
2014,09,21,10,12,19.00
2014,09,21,10,13,18.80
2014,09,21,10,14,18.60
2014,09,21,10,15,18.40
2014,09,21,10,16,18.30
2014,09,21,10,17,18.30
2014,09,21,10,18,18.30
2014,09,21,10,19,18.30
2014,09,21,10,20,18.30
2014,09,21,10,21,18.30
2014,09,21,10,22,18.20
2014,09,21,10,23,18.20
2014,09,21,10,24,18.20
2014,09,21,10,25,18.30
2014,09,21,10,26,18.30
2014,09,21,10,27,18.20
2014,09,21,10,28,18.10
2014,09,21,10,29,18.00
2014,09,21,10,30,18.00
2014,09,21,10,31,18.10
2014,09,21,10,32,18.20
2014,09,21,10,33,18.30
2014,09,21,10,34,18.50
2014,09,21,10,35,18.50
2014,09,21,10,36,18.60
2014,09,21,10,37,18.70
2014,09,21,10,38,18.80
2014,09,21,10,39,18.90
2014,09,21,10,40,19.00
2014,09,21,10,41,19.10
2014,09,21,10,42,19.20
2014,09,21,10,43,19.30
2014,09,21,10,44,19.40
2014,09,21,10,45,19.50
2014,09,21,10,46,19.60
2014,09,21,10,47,19.80
2014,09,21,10,48,19.90
2014,09,21,10,49,19.90
2014,09,21,10,50,20.00
2014,09,21,10,51,19.90
2014,09,21,10,52,19.90
2014,09,21,10,53,19.90
2014,09,21,10,54,19.90
2014,09,21,10,55,19.80
2014,09,21,10,56,19.90
2014,09,21,10,57,19.90
2014,09,21,10,58,20.00
2014,09,21,10,59,20.00
2014,09,21,11,00,20.00
2014,09,21,11,01,20.10
2014,09,21,11,02,20.10
2014,09,21,11,03,20.10
2014,09,21,11,04,20.10
2014,09,21,11,05,20.10
2014,09,21,11,06,20.10
2014,09,21,11,07,20.10
2014,09,21,11,08,20.10
2014,09,21,11,09,20.10
2014,09,21,11,10,20.10
2014,09,21,11,11,20.20
2014,09,21,11,12,20.20
2014,09,21,11,13,20.30
2014,09,21,11,14,20.30
2014,09,21,11,15,20.30
2014,09,21,11,16,20.30
2014,09,21,11,17,20.30
2014,09,21,11,18,20.40
2014,09,21,11,19,20.50
2014,09,21,11,20,20.60
2014,09,21,11,21,20.60
2014,09,21,11,22,20.60
2014,09,21,11,23,20.60
2014,09,21,11,24,20.60
2014,09,21,11,25,20.70
2014,09,21,11,26,20.70
2014,09,21,11,27,20.80
2014,09,21,11,28,20.80
2014,09,21,11,29,20.80
2014,09,21,11,30,20.80
2014,09,21,11,31,20.90
2014,09,21,11,32,20.90
2014,09,21,11,33,20.90
2014,09,21,11,34,21.00
2014,09,21,11,35,21.00
2014,09,21,11,36,21.10
2014,09,21,11,37,21.10
2014,09,21,11,38,21.20
2014,09,21,11,39,21.20
2014,09,21,11,40,21.30
2014,09,21,11,41,21.30
2014,09,21,11,42,21.30
2014,09,21,11,43,21.30
2014,09,21,11,44,21.40
2014,09,21,11,45,21.40
2014,09,21,11,46,21.50
2014,09,21,11,47,21.60
2014,09,21,11,48,21.60
2014,09,21,11,49,21.60
2014,09,21,11,50,21.60
2014,09,21,11,51,21.60
2014,09,21,11,52,21.50
2014,09,21,11,53,21.50
2014,09,21,11,54,21.50
2014,09,21,11,55,21.50
2014,09,21,11,56,21.40
2014,09,21,11,57,21.40
2014,09,21,11,58,21.40
2014,09,21,11,59,21.40
2014,09,21,12,00,21.50
2014,09,21,12,01,21.60
2014,09,21,12,02,21.60
2014,09,21,12,03,21.70
2014,09,21,12,04,21.70
2014,09,21,12,05,21.60
2014,09,21,12,06,21.50
2014,09,21,12,07,21.40
2014,09,21,12,08,21.30
2014,09,21,12,09,21.20
2014,09,21,12,10,21.20
2014,09,21,12,11,21.20
2014,09,21,12,12,21.20
2014,09,21,12,13,21.20
2014,09,21,12,14,21.20
2014,09,21,12,15,21.20
2014,09,21,12,16,21.20
2014,09,21,12,17,21.20
2014,09,21,12,18,21.30
2014,09,21,12,19,21.40
2014,09,21,12,20,21.50
2014,09,21,12,21,21.50
2014,09,21,12,22,21.70
2014,09,21,12,23,21.70
2014,09,21,12,24,21.80
2014,09,21,12,25,21.90
2014,09,21,12,26,22.00
2014,09,21,12,27,22.10
2014,09,21,12,28,22.20
2014,09,21,12,29,22.20
2014,09,21,12,30,22.30
2014,09,21,12,31,22.30
2014,09,21,12,32,22.40
2014,09,21,12,33,22.40
2014,09,21,12,34,22.50
2014,09,21,12,35,22.60
2014,09,21,12,36,22.60
2014,09,21,12,37,22.60
2014,09,21,12,38,22.60
2014,09,21,12,39,22.60
2014,09,21,12,40,22.60
2014,09,21,12,41,22.60
2014,09,21,12,42,22.60
2014,09,21,12,43,22.50
2014,09,21,12,44,22.50
2014,09,21,12,45,22.50
2014,09,21,12,46,22.60
2014,09,21,12,47,22.80
2014,09,21,12,48,22.90
2014,09,21,12,49,22.90
2014,09,21,12,50,23.00
2014,09,21,12,51,23.00
2014,09,21,12,52,23.00
2014,09,21,12,53,23.00
2014,09,21,12,54,23.00
2014,09,21,12,55,23.10
2014,09,21,12,56,23.10
2014,09,21,12,57,23.10
2014,09,21,12,58,23.10
2014,09,21,12,59,23.10
2014,09,21,13,00,23.00
2014,09,21,13,01,22.90
2014,09,21,13,02,22.80
2014,09,21,13,03,22.70
2014,09,21,13,04,22.70
2014,09,21,13,05,22.70
2014,09,21,13,06,22.60
2014,09,21,13,07,22.30
2014,09,21,13,08,22.10
2014,09,21,13,09,22.10
2014,09,21,13,10,22.10
2014,09,21,13,11,22.10
2014,09,21,13,12,22.10
2014,09,21,13,13,22.10
2014,09,21,13,14,22.20
2014,09,21,13,15,22.40
2014,09,21,13,16,22.50
2014,09,21,13,17,22.60
2014,09,21,13,18,22.70
2014,09,21,13,19,22.80
2014,09,21,13,20,22.90
2014,09,21,13,21,23.10
2014,09,21,13,22,23.20
2014,09,21,13,23,23.30
2014,09,21,13,24,23.40
2014,09,21,13,25,23.40
2014,09,21,13,26,23.30
2014,09,21,13,27,23.20
2014,09,21,13,28,23.10
2014,09,21,13,29,23.10
2014,09,21,13,30,23.00
2014,09,21,13,31,23.00
2014,09,21,13,32,22.90
2014,09,21,13,33,23.00
2014,09,21,13,34,23.00
2014,09,21,13,35,23.10
2014,09,21,13,36,23.20
2014,09,21,13,37,23.30
2014,09,21,13,38,23.30
2014,09,21,13,39,23.30
2014,09,21,13,40,23.30
2014,09,21,13,41,23.30
2014,09,21,13,42,23.30
2014,09,21,13,43,23.30
2014,09,21,13,44,23.40
2014,09,21,13,45,23.40
2014,09,21,13,46,23.50
2014,09,21,13,47,23.70
2014,09,21,13,48,23.70
2014,09,21,13,49,23.70
2014,09,21,13,50,23.80
2014,09,21,13,51,23.80
2014,09,21,13,52,23.80
2014,09,21,13,53,23.80
2014,09,21,13,54,23.80
2014,09,21,13,55,23.80
2014,09,21,13,56,23.80
2014,09,21,13,57,23.80
2014,09,21,13,58,23.80
2014,09,21,13,59,23.90
2014,09,21,14,00,24.00
2014,09,21,14,01,24.00
2014,09,21,14,02,24.10
2014,09,21,14,03,24.10
2014,09,21,14,04,24.10
2014,09,21,14,05,24.20
2014,09,21,14,06,24.20
2014,09,21,14,07,24.20
2014,09,21,14,08,24.20
2014,09,21,14,09,24.20
2014,09,21,14,10,24.20
2014,09,21,14,11,24.20
2014,09,21,14,12,24.30
2014,09,21,14,13,24.30
2014,09,21,14,14,24.20
2014,09,21,14,15,24.20
2014,09,21,14,16,24.20
2014,09,21,14,17,24.20
2014,09,21,14,18,24.20
2014,09,21,14,19,24.20
2014,09,21,14,20,24.20
2014,09,21,14,21,24.30
2014,09,21,14,22,24.40
2014,09,21,14,23,24.40
2014,09,21,14,24,24.50
2014,09,21,14,25,24.50
2014,09,21,14,26,24.50
2014,09,21,14,27,24.50
2014,09,21,14,28,24.50
2014,09,21,14,29,24.50
2014,09,21,14,30,24.40
2014,09,21,14,31,24.40
2014,09,21,14,32,24.40
2014,09,21,14,33,24.30
2014,09,21,14,34,24.30
2014,09,21,14,35,24.30
2014,09,21,14,36,24.30
2014,09,21,14,37,24.30
2014,09,21,14,38,24.40
2014,09,21,14,39,24.40
2014,09,21,14,40,24.50
2014,09,21,14,41,24.50
2014,09,21,14,42,24.60
2014,09,21,14,43,24.60
2014,09,21,14,44,24.50
2014,09,21,14,45,24.30
2014,09,21,14,46,24.30
2014,09,21,14,47,24.20
2014,09,21,14,48,24.20
2014,09,21,14,49,24.30
2014,09,21,14,50,24.30
2014,09,21,14,51,24.20
2014,09,21,14,52,24.20
2014,09,21,14,53,24.20
2014,09,21,14,54,24.20
2014,09,21,14,55,24.10
2014,09,21,14,56,24.10
2014,09,21,14,57,24.10
2014,09,21,14,58,24.00
2014,09,21,14,59,23.80
2014,09,21,15,00,23.70
2014,09,21,15,01,23.60
2014,09,21,15,02,23.60
2014,09,21,15,03,23.40
2014,09,21,15,04,23.30
2014,09,21,15,05,23.20
2014,09,21,15,06,23.10
2014,09,21,15,07,23.10
2014,09,21,15,08,23.20
2014,09,21,15,09,23.20
2014,09,21,15,10,23.20
2014,09,21,15,11,23.20
2014,09,21,15,12,23.20
2014,09,21,15,13,23.10
2014,09,21,15,14,23.00
2014,09,21,15,15,22.90
2014,09,21,15,16,22.90
2014,09,21,15,17,22.90
2014,09,21,15,18,22.80
2014,09,21,15,19,22.80
2014,09,21,15,20,22.80
2014,09,21,15,21,22.90
2014,09,21,15,22,22.90
2014,09,21,15,23,23.00
2014,09,21,15,24,23.00
2014,09,21,15,25,23.10
2014,09,21,15,26,23.10
2014,09,21,15,27,23.20
2014,09,21,15,28,23.20
2014,09,21,15,29,23.20
2014,09,21,15,30,23.30
2014,09,21,15,31,23.30
2014,09,21,15,32,23.30
2014,09,21,15,33,23.20
2014,09,21,15,34,23.10
2014,09,21,15,35,23.10
2014,09,21,15,36,23.00
2014,09,21,15,37,23.00
2014,09,21,15,38,22.90
2014,09,21,15,39,23.00
2014,09,21,15,40,23.00
2014,09,21,15,41,23.00
2014,09,21,15,42,22.80
2014,09,21,15,43,22.70
2014,09,21,15,44,22.50
2014,09,21,15,45,22.40
2014,09,21,15,46,22.40
2014,09,21,15,47,22.30
2014,09,21,15,48,22.30
2014,09,21,15,49,22.30
2014,09,21,15,50,22.30
2014,09,21,15,51,22.30
2014,09,21,15,52,22.20
2014,09,21,15,53,22.20
2014,09,21,15,54,22.20
2014,09,21,15,55,22.20
2014,09,21,15,56,22.20
2014,09,21,15,57,22.10
2014,09,21,15,58,22.00
2014,09,21,15,59,22.00
2014,09,21,16,00,21.90
2014,09,21,16,01,21.90
2014,09,21,16,02,21.90
2014,09,21,16,03,22.00
2014,09,21,16,04,22.10
2014,09,21,16,05,22.10
2014,09,21,16,06,22.20
2014,09,21,16,07,22.20
2014,09,21,16,08,22.20
2014,09,21,16,09,22.20
2014,09,21,16,10,22.30
2014,09,21,16,11,22.30
2014,09,21,16,12,22.40
2014,09,21,16,13,22.40
2014,09,21,16,14,22.50
2014,09,21,16,15,22.50
2014,09,21,16,16,22.50
2014,09,21,16,17,22.50
2014,09,21,16,18,22.50
2014,09,21,16,19,22.40
2014,09,21,16,20,22.30
2014,09,21,16,21,22.00
2014,09,21,16,22,21.90
2014,09,21,16,23,21.80
2014,09,21,16,24,21.70
2014,09,21,16,25,21.60
2014,09,21,16,26,21.60
2014,09,21,16,27,21.60
2014,09,21,16,28,21.50
2014,09,21,16,29,21.50
2014,09,21,16,30,21.50
2014,09,21,16,31,21.40
2014,09,21,16,32,21.40
2014,09,21,16,33,21.40
2014,09,21,16,34,21.40
2014,09,21,16,35,21.30
2014,09,21,16,36,21.20
2014,09,21,16,37,21.20
2014,09,21,16,38,21.10
2014,09,21,16,39,21.10
2014,09,21,16,40,21.10
2014,09,21,16,41,21.10
2014,09,21,16,42,21.10
2014,09,21,16,43,21.00
2014,09,21,16,44,21.00
2014,09,21,16,45,21.00
2014,09,21,16,46,20.90
2014,09,21,16,47,20.90
2014,09,21,16,48,20.90
2014,09,21,16,49,20.90
2014,09,21,16,50,20.80
2014,09,21,16,51,20.80
2014,09,21,16,52,20.90
2014,09,21,16,53,20.90
2014,09,21,16,54,21.00
2014,09,21,16,55,21.10
2014,09,21,16,56,21.20
2014,09,21,16,57,21.20
2014,09,21,16,58,21.20
2014,09,21,16,59,21.30
2014,09,21,17,00,21.30
2014,09,21,17,01,21.30
2014,09,21,17,02,21.20
2014,09,21,17,03,21.20
2014,09,21,17,04,21.20
2014,09,21,17,05,21.20
2014,09,21,17,06,21.20
2014,09,21,17,07,21.30
2014,09,21,17,08,21.30
2014,09,21,17,09,21.30
2014,09,21,17,10,21.30
2014,09,21,17,11,21.30
2014,09,21,17,12,21.30
2014,09,21,17,13,21.30
2014,09,21,17,14,21.20
2014,09,21,17,15,21.10
2014,09,21,17,16,21.10
2014,09,21,17,17,21.10
2014,09,21,17,18,21.10
2014,09,21,17,19,21.10